Probability
3 3 3 3 3 3 3 3 3 3 0 0 0 0 0 0 0 0 0 0 0 0 0 0 0 0 0 0 0 0 0 0 0 0 0 0 0 0 0 0 0 0 0
3 3 3 3 3 3 3 3 3 3 0 0 0 0 0 0 0 0 0 0 0 0 0 0 0 0 0 0 0 0 0 0 0 0 0 0 0 0 0 0 0 0 0
3 3 3 3 3 3 3 3 3 3 0 0 0 0 0 0 0 0 0 0 0 0 0 0 0 0 0 0 0 0 0 0 0 0 0 0 0 0 0 0 0 0 0
3 3 3 3 3 3 3 3 0 0 0 0 0 0 0 0 0 0 0 0 0 0 0 0 0 0 0 0 0 0 0 0 0 0 0 0 0 0 0 0 0 0 0
0 3 3 3 3 3 3 0 0 0 0 0 0 0 0 0 0 0 0 0 0 0 0 0 0 0 0 0 0 0 0 0 0 0 0 0 0 0 0 0 0 0 0
0 0 0 0 0 0 0 0 0 0 0 0 0 0 0 0 0 0 0 0 0 0 0 0 0 0 0 0 0 0 0 0 0 0 0 0 0 0 0 0 0 0 0
0 0 0 0 0 0 0 0 0 0 0 0 0 0 0 0 0 0 0 0 0 0 0 0 0 0 0 0 0 0 0 0 0 0 0 0 0 0 0 0 0 0 0
0 0 0 0 0 0 0 0 0 0 0 0 0 0 0 0 0 0 0 0 0 0 0 0 0 0 0 0 0 0 0 0 0 0 0 0 0 0 0 0 0 0 0
0 0 0 0 0 0 0 0 0 0 0 0 0 0 0 0 0 0 0 0 0 0 0 0 0 0 0 0 0 0 0 0 0 0 0 0 0 0 0 0 0 0 0
0 0 0 0 0 0 0 0 0 0 0 0 0 0 0 0 0 0 0 0 0 0 0 0 0 0 0 0 0 0 0 0 0 0 0 0 0 0 0 0 0 0 0
0 0 0 0 0 0 0 0 0 0 0 0 0 0 0 0 0 0 0 0 0 0 0 0 0 0 0 0 0 0 0 0 0 0 0 0 0 0 0 0 0 0 0
0 0 0 0 0 0 0 0 0 0 0 0 0 0 0 0 0 0 0 0 0 0 0 0 0 0 0 0 0 0 0 0 0 0 0 0 0 0 0 0 0 0 0
0 0 0 0 0 0 0 0 0 0 0 0 0 0 0 0 0 0 0 0 0 0 0 0 0 0 0 0 0 0 0 0 0 0 0 0 0 0 0 0 0 0 0
0 0 0 0 0 0 0 0 0 0 0 0 0 0 0 0 0 0 0 0 0 0 0 0 0 0 0 0 0 0 0 0 0 0 0 0 0 0 0 0 0 0 0
0 0 0 0 0 0 0 0 0 0 0 0 0 0 0 0 0 0 0 0 0 0 0 0 0 0 0 0 0 0 0 0 0 0 0 0 0 0 0 0 0 0 0
0 0 0 0 0 0 0 0 0 0 0 0 0 0 0 0 0 0 0 0 0 0 0 0 0 0 0 0 0 0 0 0 0 0 0 0 0 0 0 0 0 0 0
0 0 0 0 0 0 0 0 0 0 0 0 0 0 0 0 0 0 0 0 0 0 0 0 0 0 0 0 0 0 0 0 0 0 0 0 0 0 0 0 0 0 0
0 0 0 0 0 0 0 0 0 0 0 0 0 0 0 0 0 0 0 0 0 0 0 0 0 0 0 0 0 0 0 0 0 0 0 0 0 0 0 0 0 0 0
0 0 0 0 0 0 0 0 0 0 0 0 0 0 0 0 0 0 0 0 0 0 0 0 0 0 0 0 0 0 0 0 0 0 0 0 0 0 0 0 0 0 0
0 0 0 0 0 0 0 0 0 0 0 0 0 0 0 0 0 0 0 0 0 0 0 0 0 0 0 0 0 0 0 0 0 0 0 0 0 0 0 0 0 0 0
0 0 0 0 0 0 0 0 0 0 0 0 0 0 0 0 0 0 0 0 0 0 0 0 0 0 0 0 0 0 0 0 0 0 0 0 0 0 0 0 0 0 0
0 0 0 0 0 0 0 0 0 0 0 0 0 0 0 0 0 0 0 0 0 0 0 0 0 0 0 0 0 0 0 0 0 0 0 0 0 0 0 0 0 0 0
0 0 0 0 0 0 0 0 0 0 0 0 0 0 0 0 0 0 0 0 0 0 0 0 0 0 0 0 0 0 0 0 0 0 0 0 0 0 0 0 0 0 0
0 0 0 0 0 0 0 0 0 0 0 0 0 0 0 0 0 0 0 0 0 0 0 0 0 0 0 0 0 0 0 0 0 0 0 0 0 0 0 0 0 0 0
0 0 0 0 0 0 0 0 0 0 0 0 0 0 0 0 0 0 0 0 0 0 0 0 0 0 0 0 0 0 0 0 0 0 0 0 0 0 0 0 0 0 0
0 0 0 0 0 0 0 0 0 0 0 0 0 0 0 0 0 0 0 0 0 0 0 0 0 0 0 0 0 0 0 0 0 0 0 0 0 0 0 0 0 0 0
Height
5603 5609 5615 5621 5627 5632 5637 5643 5648 5653 5658 5662 5667 5671 5676 5680 5685 5689 5693 5697 5701 5705 5709 5713 5717 5721 5724 5728 5731 5734 5736 5739 5742 5744 5746 5747 5748 5749 5749 5750 5750 5750 5750
5594 5599 5604 5610 5615 5620 5626 5631 5635 5641 5645 5650 5655 5659 5664 5668 5673 5677 5682 5686 5690 5694 5698 5702 5706 5710 5714 5717 5720 5723 5725 5728 5731 5733 5735 5736 5737 5738 5739 5739 5739 5739 5739
5584 5589 5593 5598 5603 5608 5613 5618 5623 5628 5632 5637 5642 5646 5651 5655 5660 5665 5669 5674 5678 5682 5686 5691 5695 5699 5702 5706 5709 5712 5714 5717 5719 5722 5723 5725 5726 5727 5727 5727 5727 5727 5727
5575 5578 5583 5588 5592 5597 5601 5606 5610 5615 5619 5624 5628 5633 5637 5642 5647 5652 5656 5661 5666 5670 5674 5679 5683 5687 5691 5694 5697 5700 5702 5705 5707 5709 5711 5713 5714 5715 5715 5715 5716 5715 5715
5566 5569 5573 5577 5581 5585 5590 5594 5598 5602 5606 5610 5614 5619 5624 5629 5634 5638 5643 5648 5653 5657 5662 5666 5671 5675 5679 5682 5685 5688 5690 5693 5695 5697 5699 5700 5701 5702 5703 5703 5703 5703 5703
5557 5560 5563 5567 5570 5575 5578 5582 5586 5590 5593 5597 5601 5605 5610 5615 5620 5625 5630 5635 5640 5644 5649 5654 5659 5663 5666 5669 5673 5675 5678 5680 5683 5685 5686 5688 5689 5690 5690 5690 5691 5691 5691
5548 5551 5554 5557 5561 5565 5568 5571 5574 5578 5580 5584 5588 5592 5597 5602 5607 5612 5616 5621 5626 5631 5636 5641 5645 5650 5653 5656 5660 5662 5665 5667 5670 5672 5673 5675 5676 5677 5678 5678 5677 5676 5677
5539 5542 5545 5548 5551 5554 5557 5560 5563 5566 5569 5572 5575 5579 5584 5589 5594 5598 5603 5608 5613 5618 5623 5628 5633 5636 5639 5643 5646 5650 5652 5654 5657 5659 5661 5662 5662 5663 5663 5664 5663 5663 5662
5530 5533 5536 5539 5541 5544 5547 5549 5552 5555 5557 5560 5563 5567 5571 5576 5581 5586 5590 5594 5599 5604 5610 5615 5619 5623 5627 5630 5634 5637 5639 5641 5642 5644 5646 5647 5648 5649 5649 5649 5649 5648 5649
5522 5524 5527 5529 5532 5534 5536 5539 5541 5544 5546 5549 5551 5555 5560 5564 5569 5573 5577 5582 5587 5593 5598 5602 5606 5610 5613 5616 5619 5622 5625 5628 5629 5631 5632 5633 5634 5634 5635 5635 5635 5634 5633
5513 5516 5518 5520 5523 5525 5527 5529 5531 5533 5536 5538 5542 5545 5549 5553 5557 5561 5565 5569 5574 5580 5585 5589 5593 5597 5600 5603 5606 5609 5612 5614 5615 5616 5617 5619 5620 5620 5621 5621 5620 5619 5618
5505 5507 5510 5511 5513 5516 5518 5519 5521 5523 5526 5528 5532 5534 5538 5541 5546 5549 5553 5558 5562 5568 5572 5576 5580 5583 5586 5589 5592 5595 5597 5599 5600 5601 5603 5604 5605 5605 5606 5606 5605 5604 5603
5496 5498 5501 5503 5505 5507 5509 5510 5512 5514 5516 5519 5522 5525 5528 5531 5535 5539 5543 5546 5550 5555 5560 5564 5567 5570 5573 5576 5578 5580 5582 5584 5585 5587 5588 5589 5590 5590 5590 5590 5590 5589 5588
5488 5490 5492 5494 5496 5498 5500 5501 5503 5505 5507 5510 5512 5515 5518 5521 5524 5528 5531 5534 5538 5542 5546 5550 5553 5557 5559 5562 5564 5566 5568 5570 5571 5573 5574 5574 5575 5575 5575 5575 5575 5574 5573
5480 5481 5483 5485 5487 5489 5491 5492 5494 5496 5498 5501 5503 5505 5508 5511 5514 5517 5520 5523 5526 5530 5533 5537 5540 5543 5546 5549 5551 5553 5554 5556 5557 5559 5559 5560 5560 5560 5560 5560 5560 5559 5558
5471 5473 5474 5476 5479 5481 5482 5484 5485 5487 5489 5491 5493 5496 5499 5501 5504 5506 5509 5513 5515 5518 5521 5525 5528 5530 5533 5535 5537 5539 5540 5542 5543 5544 5545 5545 5545 5545 5545 5545 5545 5545 5544
5463 5464 5466 5468 5470 5472 5474 5475 5477 5479 5480 5482 5484 5486 5488 5491 5493 5495 5498 5501 5503 5506 5509 5512 5515 5517 5520 5522 5524 5525 5527 5528 5529 5530 5530 5530 5530 5530 5530 5530 5530 5530 5529
5455 5456 5458 5460 5461 5463 5465 5466 5468 5470 5471 5473 5475 5476 5478 5480 5482 5484 5487 5489 5492 5494 5497 5499 5502 5504 5506 5508 5510 5512 5513 5514 5515 5516 5517 5516 5516 5516 5516 5516 5516 5515 5514
5446 5448 5449 5451 5452 5454 5456 5457 5459 5461 5463 5464 5465 5467 5468 5470 5472 5474 5476 5478 5481 5483 5485 5487 5489 5491 5493 5495 5497 5498 5500 5501 5502 5502 5503 5503 5503 5503 5502 5502 5501 5500 5499
5437 5439 5440 5441 5443 5445 5446 5448 5450 5452 5453 5455 5456 5458 5459 5461 5462 5464 5466 5468 5470 5472 5474 5476 5478 5479 5481 5482 5484 5485 5487 5487 5488 5489 5489 5489 5489 5489 5489 5488 5487 5486 5485
5428 5430 5431 5433 5434 5435 5437 5439 5441 5442 5444 5446 5447 5448 5450 5451 5453 5454 5456 5458 5459 5461 5463 5465 5467 5468 5469 5471 5472 5473 5474 5475 5475 5476 5476 5476 5476 5476 5475 5474 5473 5472 5471
5420 5421 5422 5424 5425 5426 5427 5429 5431 5433 5435 5436 5438 5439 5440 5442 5443 5445 5446 5448 5449 5451 5452 5454 5455 5456 5457 5459 5460 5461 5462 5462 5463 5463 5463 5463 5463 5463 5462 5461 5460 5459 5457
5411 5412 5413 5415 5416 5418 5419 5420 5422 5424 5425 5426 5428 5429 5431 5432 5433 5435 5436 5438 5439 5441 5442 5443 5444 5445 5446 5447 5448 5449 5450 5450 5450 5451 5451 5450 5450 5450 5449 5449 5448 5446 5444
5402 5403 5404 5406 5407 5408 5410 5411 5412 5414 5415 5417 5418 5419 5421 5422 5424 5425 5426 5428 5429 5430 5431 5432 5433 5434 5435 5436 5437 5437 5437 5438 5438 5438 5438 5438 5438 5437 5437 5436 5435 5434 5432
5393 5394 5395 5397 5398 5399 5400 5401 5403 5404 5405 5407 5408 5409 5411 5412 5414 5415 5416 5417 5418 5420 5420 5422 5423 5423 5424 5424 5425 5425 5426 5426 5426 5426 5426 5426 5426 5425 5425 5424 5423 5421 5420
5384 5385 5386 5387 5388 5390 5391 5392 5393 5394 5395 5397 5398 5399 5401 5402 5403 5405 5406 5407 5408 5409 5410 5411 5411 5412 5412 5413 5413 5414 5414 5414 5414 5414 5414 5414 5414 5413 5413 5412 5411 5409 5408
Wind_Speed
48 50 51 50 50 50 50 50 51 52 53 53 52 52 51 50 50 50 49 48 49 49 49 49 47 45 44 44 43 43 42 43 43 41 41 41 41 41 42 42 42 42 42
45 48 49 50 51 51 51 50 51 52 53 53 53 53 54 53 52 52 51 50 50 50 50 49 48 46 45 45 45 45 44 44 44 43 43 43 43 44 44 44 44 44 44
43 45 47 48 49 50 51 51 50 51 53 53 55 55 55 55 55 54 53 53 52 52 52 51 50 47 46 46 46 46 46 46 46 46 45 45 46 46 46 46 46 46 46
41 43 45 47 47 49 50 51 50 51 53 54 55 55 55 55 56 56 55 54 54 54 54 53 51 50 49 47 47 48 48 48 47 48 48 48 48 48 48 48 48 48 47
38 40 43 44 45 46 48 49 49 50 52 54 56 56 56 56 56 56 56 56 56 55 54 54 52 51 51 50 49 49 50 48 48 48 49 50 50 50 49 49 48 48 49
36 37 40 42 44 45 46 47 49 50 51 52 54 56 56 57 57 56 57 56 56 56 55 55 53 52 51 52 52 51 51 50 50 51 51 50 50 50 50 50 50 50 50
37 37 38 39 41 42 44 45 47 48 49 52 52 54 55 56 56 55 56 56 57 57 56 56 54 55 54 53 53 53 52 52 52 52 52 50 50 50 50 50 50 51 50
36 38 39 39 39 40 42 44 45 48 48 49 51 52 54 55 56 55 55 56 56 57 57 56 55 55 54 53 53 53 53 52 52 53 52 52 52 52 51 51 51 52 52
36 37 37 38 38 39 41 42 44 46 47 47 48 49 51 52 54 54 55 55 56 57 57 56 55 55 55 54 54 53 52 53 53 53 52 52 53 53 52 52 52 53 53
35 37 38 38 38 38 40 42 43 45 46 46 46 47 48 50 51 52 53 54 56 56 56 55 55 54 54 54 54 53 53 53 53 53 53 53 53 53 53 53 54 54 54
36 37 37 37 38 39 39 40 42 43 44 45 45 46 47 49 49 49 50 52 54 55 55 54 54 54 53 54 54 53 53 53 54 54 54 54 54 54 54 54 54 55 55
35 36 37 37 37 37 38 38 39 40 42 42 42 42 45 46 47 47 48 50 52 53 53 52 52 52 52 52 53 53 53 53 53 53 53 53 53 53 54 54 54 54 55
34 34 35 36 37 37 37 38 38 39 40 41 42 42 43 44 45 46 47 48 50 52 52 52 52 51 51 51 52 52 52 53 53 52 52 52 52 53 53 54 54 54 54
32 33 33 34 35 36 36 36 37 37 38 39 39 41 41 42 43 45 47 47 48 49 50 51 50 50 51 51 51 52 52 52 52 52 51 51 52 52 53 54 54 54 53
32 32 33 33 33 34 35 35 35 36 37 38 38 38 40 41 42 44 45 46 46 46 47 48 48 49 50 50 50 50 51 51 51 51 51 51 51 52 52 53 53 53 52
31 31 32 34 33 33 33 34 34 35 36 36 36 37 38 40 41 41 42 44 45 46 46 47 47 48 48 48 49 49 49 49 50 50 50 50 50 51 52 52 53 54 53
29 30 31 33 33 33 33 33 33 34 34 35 36 36 37 39 40 41 41 42 43 44 45 46 47 48 48 48 48 48 48 48 48 48 48 49 50 51 52 52 53 53 52
29 29 30 31 32 33 33 34 33 33 33 34 35 36 36 37 39 40 41 41 42 43 44 44 46 48 49 49 48 48 47 47 48 48 49 49 49 50 51 51 52 52 52
29 30 30 30 32 33 34 34 34 34 33 33 34 35 36 36 38 39 39 39 40 41 42 43 43 44 45 46 47 47 47 47 47 47 47 47 48 49 49 49 50 50 50
30 30 30 30 31 32 33 33 33 33 33 32 32 33 34 35 36 36 37 37 38 39 40 40 41 41 42 44 45 45 46 46 46 46 46 46 47 47 48 48 49 48 49
30 30 30 30 31 31 32 32 33 34 33 33 33 33 34 34 35 36 36 36 37 38 38 38 39 40 41 42 43 44 44 45 46 46 46 46 47 47 46 46 46 46 46
29 30 30 30 31 31 31 32 33 34 34 35 34 33 33 34 34 35 36 36 37 37 38 38 37 38 38 39 41 42 43 43 44 44 45 45 46 46 45 45 44 44 44
30 31 31 31 31 31 31 32 33 34 34 35 35 34 34 34 34 34 35 35 36 37 37 37 37 37 38 39 39 40 40 41 41 42 42 42 43 43 44 44 44 44 43
29 30 30 30 31 31 32 32 32 33 34 34 35 35 35 34 34 34 34 34 35 36 37 37 37 38 38 38 39 39 39 39 39 40 40 41 41 41 41 42 43 43 42
28 29 29 29 30 31 31 32 32 33 33 33 33 34 34 34 34 34 35 35 35 36 36 37 38 38 38 38 38 38 39 39 39 40 40 40 40 40 40 40 40 40 39
27 28 29 30 30 30 31 31 31 31 32 32 32 32 33 33 33 34 34 34 35 35 36 36 37 37 37 37 37 38 38 38 39 39 39 39 38 38 38 38 37 37 38
Wind_Direction
235 234 234 235 234 235 236 237 237 237 238 238 239 240 240 240 241 241 241 241 241 242 241 241 243 244 245 246 246 247 250 252 253 254 256 257 258 259 261 264 266 269 271
236 235 235 236 236 237 238 238 239 238 238 239 240 240 240 241 241 241 241 241 242 242 242 243 244 245 246 247 248 249 250 252 254 255 256 258 259 261 262 264 267 269 270
236 235 235 236 236 237 238 238 239 239 239 240 240 240 241 241 242 242 243 243 243 243 243 244 245 246 248 248 249 250 251 252 255 256 257 258 260 262 263 265 266 268 270
236 235 236 236 237 237 238 239 239 240 239 239 239 240 240 241 242 243 243 244 244 244 245 246 245 247 249 250 251 251 251 252 255 256 257 259 261 262 264 265 266 268 270
237 238 237 235 237 238 239 239 239 240 240 241 241 241 241 241 242 243 244 244 244 245 245 246 246 248 250 250 251 252 252 253 255 257 258 260 261 262 263 265 266 268 270
239 238 236 237 237 238 238 240 241 242 241 242 242 242 242 242 242 243 244 244 245 245 246 246 246 248 250 251 252 253 254 255 256 259 260 261 262 263 265 266 268 269 270
240 239 237 236 237 238 240 240 242 243 243 244 244 244 243 242 242 243 244 244 245 245 246 245 246 248 250 251 252 254 256 257 258 260 262 262 263 264 266 268 269 270 271
244 243 241 240 240 241 240 242 243 243 244 245 245 244 243 243 243 243 244 245 245 245 244 245 247 248 249 250 252 255 256 258 259 260 262 263 263 265 267 268 269 270 271
245 243 241 240 241 243 243 243 244 243 243 243 243 243 243 243 243 244 244 244 244 244 245 246 247 249 249 250 253 254 256 258 259 261 262 263 263 265 266 268 270 271 272
245 245 244 244 245 246 246 245 245 244 243 243 242 243 243 244 243 244 245 244 244 244 245 247 248 249 250 251 253 255 256 258 260 261 261 262 263 264 266 268 271 272 273
246 246 247 247 247 247 248 247 245 244 244 244 243 243 243 244 244 245 246 245 244 243 245 247 248 249 251 252 254 256 257 259 261 261 262 263 263 264 266 268 270 272 273
246 246 246 247 248 249 250 249 247 246 245 245 244 244 243 243 244 245 246 245 244 244 245 247 249 250 252 254 256 257 258 259 261 262 263 263 264 265 266 267 269 271 273
247 248 248 248 248 249 250 250 249 247 246 245 245 244 245 244 243 244 245 246 246 247 247 248 249 250 252 254 256 257 259 259 261 262 263 263 264 264 265 266 267 269 271
248 249 248 248 248 250 251 251 250 249 248 248 248 247 247 246 245 245 245 247 249 250 249 249 249 250 252 254 256 257 259 259 260 261 262 263 264 264 264 265 267 269 272
250 250 249 249 249 250 251 252 251 248 249 249 250 250 249 248 246 246 246 247 248 248 249 249 250 252 253 254 255 256 258 259 260 261 262 263 264 264 264 266 268 270 271
250 251 250 248 250 251 252 252 251 250 250 250 251 251 249 248 247 247 247 247 248 249 250 251 252 252 253 253 254 256 258 258 259 260 261 262 263 264 266 268 269 269 271
251 252 251 250 249 251 251 251 250 250 251 250 249 250 250 248 248 249 249 249 249 250 250 251 252 252 253 253 254 256 257 257 259 260 262 263 264 265 265 267 268 269 270
252 253 253 251 250 250 250 250 250 250 250 251 251 250 250 250 250 250 250 250 250 250 250 252 253 253 253 254 255 255 256 257 259 260 262 263 264 265 265 267 268 269 271
252 253 254 253 251 250 250 250 250 250 251 252 251 250 251 251 251 250 250 250 251 251 252 252 254 254 254 255 255 256 257 259 260 261 263 264 264 265 267 268 269 271 272
252 251 252 252 251 250 250 250 250 249 251 251 251 251 252 252 251 250 251 252 253 253 253 254 255 255 256 256 257 258 260 261 262 262 264 265 266 267 268 270 271 272 273
252 251 251 252 252 251 250 250 250 250 251 251 252 252 252 252 252 252 253 254 254 254 254 255 256 257 257 258 259 259 261 262 263 264 265 267 268 268 270 270 271 272 274
253 252 252 252 252 252 252 251 251 250 250 251 252 253 254 254 254 254 254 254 253 253 254 255 257 257 258 258 259 259 260 262 263 265 267 268 269 269 269 270 271 274 275
253 252 252 252 253 253 253 252 252 251 251 252 253 254 255 255 255 255 255 255 255 255 256 257 258 259 259 260 260 260 260 262 263 265 265 266 268 269 269 270 272 274 275
253 253 253 252 253 254 254 253 252 253 253 254 254 254 255 255 256 256 256 257 258 258 258 258 258 259 261 261 260 260 261 262 263 263 265 266 268 268 269 271 273 274 274
253 252 253 253 254 255 255 254 254 254 253 253 253 254 255 255 256 257 257 257 258 258 258 259 259 260 260 260 261 261 262 262 263 263 265 266 267 268 269 271 272 273 274
254 253 253 254 255 255 255 255 254 254 253 252 253 253 254 254 255 256 257 257 258 258 259 259 260 260 261 262 263 263 264 264 264 264 265 265 266 267 268 270 271 272 273